{"data":{"norad_id":67873,"intl_designator":"2026-034Z","name":"STARLINK-36783","alt_names":[],"object_type":"PAYLOAD","status":"ACTIVE","operator":null,"country":"US","launch_date":"2026-02-20","launch_site_code":"AFETR","launch_vehicle":null,"mission":null,"orbit_class":"UNKNOWN","rcs_meters":null,"size_class":null,"mass_kg":null,"dimensions":null,"purposes":["comms"],"wikipedia_slug":null,"has_3d_model":false,"image_url":null,"decayed_at":null,"tle_current":{"epoch":"2026-09-19T08:52:56.643456Z","epoch_age_seconds":160904,"freshness":"FRESH","line1":"1 67873U 26034Z   26262.37010004  .00014688  00000+0  44503-3 0  9994","line2":"2 67873  53.1588  19.3203 0001168  91.8266 268.2870 15.34396030 33765","mean_motion":15.3439603,"eccentricity":0.0001168,"inclination_deg":53.1588,"raan_deg":19.3203,"arg_perigee_deg":91.8266,"mean_anomaly_deg":268.287,"bstar":0.00044503,"rev_number":3376,"period_min":93.848000897135,"perigee_km":461.91602839092,"apogee_km":463.51405142745,"semimajor_km":6840.8520399092,"source":"CELESTRAK","updated_at":"2026-09-20T09:00:43.693308Z"}}}